Volver al catálogo

FENGYUN 1C DEB

ActivoSSO
NORAD 32111·DEBRIS·🇨🇳 China

Lanzado May 10, 1999 desde Taiyuan Satellite Launch Center

Loading…

Próximos Pases (próximas 24 horas)

TLE

ActualizadoSource: Space-Track

Época: Sep 13, 2026, 05:53 UTC

1 32111U 99025CRD 26256.24534903  .00000301  00000-0  11849-3 0  9994
2 32111  98.4545 253.7671 0120807 112.6103 312.7025 14.31859314999598

Sigue FENGYUN 1C DEB en tiempo real con AllMySat

Download on the App Store